Citrix Systems Current Ratio 2006-2019 | CTXS

Current and historical current ratio for Citrix Systems (CTXS) from 2006 to 2019. Current ratio can be defined as a liquidity ratio that measures a company's ability to pay short-term obligations. Citrix Systems current ratio for the three months ending December 31, 2019 was .
Citrix Systems Current Ratio Historical Data
Date Current Assets Current Liabilities Current Ratio
2019-12-31 $1.51B $1.83B 0.83
2019-09-30 $1.19B $1.61B 0.74
2019-06-30 $1.27B $1.68B 0.76
2019-03-31 $2.45B $2.84B 0.86
2018-12-31 $2.09B $2.91B 0.72
2018-09-30 $2.50B $3.02B 0.83
2018-06-30 $2.27B $3.01B 0.75
2018-03-31 $2.08B $1.52B 1.36
2017-12-31 $2.62B $1.69B 1.55
2017-09-30 $2.15B $1.50B 1.44
2017-06-30 $2.09B $1.55B 1.35
2017-03-31 $2.09B $1.63B 1.28
2016-12-31 $2.56B $3.10B 0.83
2016-09-30 $2.27B $2.95B 0.77
2016-06-30 $2.00B $1.63B 1.23
2016-03-31 $1.79B $1.62B 1.10
2015-12-31 $1.68B $1.68B 1.00
2015-09-30 $1.74B $1.55B 1.12
2015-06-30 $1.59B $1.52B 1.04
2015-03-31 $1.67B $1.63B 1.02
2014-12-31 $1.69B $1.59B 1.06
2014-09-30 $1.45B $1.46B 0.99
2014-06-30 $1.54B $1.48B 1.05
2014-03-31 $1.54B $1.45B 1.06
2013-12-31 $1.56B $1.46B 1.07
2013-09-30 $1.33B $1.34B 0.99
2013-06-30 $1.37B $1.35B 1.02
2013-03-31 $1.30B $1.30B 1.00
2012-12-31 $1.71B $1.34B 1.28
2012-09-30 $1.32B $1.17B 1.13
2012-06-30 $1.88B $1.13B 1.65
2012-03-31 $1.42B $1.17B 1.22
2011-12-31 $1.37B $1.18B 1.16
2011-09-30 $1.31B $1.05B 1.25
2011-06-30 $1.45B $1.04B 1.40
2011-03-31 $1.43B $0.97B 1.47
2010-12-31 $1.47B $1.02B 1.44
2010-09-30 $1.39B $0.89B 1.56
2010-06-30 $1.31B $0.88B 1.48
2010-03-31 $1.09B $0.83B 1.30
2009-12-31 $1.04B $0.83B 1.25
2009-09-30 $0.96B $0.73B 1.33
2009-06-30 $0.95B $0.72B 1.32
2009-03-31 $0.89B $0.72B 1.24
2008-12-31 $0.94B $0.73B 1.29
2008-09-30 $0.89B $0.69B 1.30
2008-06-30 $0.83B $0.67B 1.23
2008-03-31 $0.78B $0.66B 1.18
2007-12-31 $0.93B $0.65B 1.43
2007-09-30 $1.04B $0.62B 1.67
2007-06-30 $1.03B $0.62B 1.68
2007-03-31 $0.94B $0.59B 1.61
2006-12-31 $0.81B $0.54B 1.52
2006-09-30 $0.70B $0.45B 1.55
2006-06-30 $0.86B $0.45B 1.92
2006-03-31 $0.78B $0.43B 1.82
2005-12-31 $0.73B $0.43B 1.68
2005-09-30 $0.70B $0.40B 1.74
2005-06-30 $0.57B $0.38B 1.50
2005-03-31 $0.47B $0.34B 1.40
Sector Industry Market Cap Revenue
Computer and Technology Computer Software $16.702B $3.011B
Citrix Systems, Inc. aims to power a world where people, organizations and things are securely connected and accessible to make the extraordinary possible. They help customers reimaging the future of work by providing the most comprehensive secure digital workspace that unifies the apps, data and services people need to be productive, and simplifies IT's ability to adopt and manage complex cloud environments. Citrix Systems become the leader in Workspace as a Service (WaaS) by delivering the industry's most comprehensive and integrated platform for secure app, data and network delivery as a service in the Citrix Cloud. Citrix Systems become the preferred and most-used solution for enterprise file synchronization and sharing (EFSS) for business users across all segments.
Stock Name Country Market Cap PE Ratio
Microsoft (MSFT) United States $1000.000B 33.07
Oracle (ORCL) United States $173.438B 16.09
Adobe (ADBE) United States $169.406B 53.97
SAP SE (SAP) Germany $165.982B 31.11
Salesforce (CRM) United States $161.532B 134.90
Intuit (INTU) United States $74.987B 50.90
VMware (VMW) United States $61.745B 33.55
Dassault Systemes SA (DASTY) France $46.291B 51.58
Autodesk (ADSK) United States $43.828B 187.91
ANSYS (ANSS) United States $23.349B 51.55
Synopsys (SNPS) United States $23.190B 44.40
Cadence Design Systems (CDNS) United States $20.927B 49.07
SS&C Technologies Holdings (SSNC) United States $16.540B 18.81
Open Text (OTEX) Canada $12.556B 38.67
PTC (PTC) United States $9.938B 62.81
Aspen Technology (AZPN) United States $9.570B 35.79
Trend Micro (TMICY) Japan $7.383B 27.53
Pegasystems (PEGA) United States $6.959B 0.00
Konami (KNMCY) Japan $5.678B 19.71
Nuance Communications (NUAN) United States $5.576B 22.55
Manhattan Associates (MANH) United States $5.487B 58.81
ACI Worldwide (ACIW) United States $4.144B 38.55
Blackbaud (BLKB) United States $3.933B 54.77
Verint Systems (VRNT) United States $3.890B 22.56
Descartes Systems Group (DSGX) Canada $3.856B 114.55
Cornerstone OnDemand (CSOD) United States $3.698B 380.69
PROS Holdings (PRO) United States $2.697B 0.00
Bottomline Technologies (EPAY) United States $2.418B 105.77
Progress Software (PRGS) United States $2.095B 20.52
CommVault Systems (CVLT) United States $2.084B 81.39
MicroStrategy (MSTR) United States $1.470B 433.82
Sapiens (SPNS) Israel $1.317B 38.13
QAD (QADB) United States $0.758B 465.63
Simulations Plus (SLP) United States $0.595B 67.42
Magic Software Enterprises (MGIC) Israel $0.545B 19.53
American Software (AMSWA) United States $0.479B 51.72
Rosetta Stone (RST) United States $0.435B 0.00
Avid Technology (AVID) United States $0.381B 20.60
Smith Micro Software (SMSI) United States $0.193B 17.28
Icad Inc (ICAD) United States $0.168B 0.00
ServiceSource (SREV) United States $0.166B 0.00
OptimizeRx (OPRX) United States $0.145B 0.00
Park City (PCYG) United States $0.098B 35.29
ImageWare Systems (IWSY) United States $0.053B 0.00
NetSol Technologies (NTWK) United States $0.050B 6.54
GSE Systems (GVP) United States $0.035B 11.60
Neonode (NEON) Sweden $0.024B 0.00
BSQUARE (BSQR) United States $0.020B 0.00
CounterPath (CPAH) Canada $0.012B 0.00